Mumbai, India

3:35 PM IST on January 23, 2017 (GMT +0530)
Chhatrapati Shivaji International | | Change Station

Elev 46 ft 19.12 °N, 72.85 °E | Updated 35 minutes ago

Smoke
Smoke
97 °F
Feels Like 97 °F
N
9
Wind Variable Wind from WSW

Today
High -- | Low -- °F
--% Chance of Precip.
Yesterday
High -- | Low -- °F
Precip. -- in
Pressure 29.92 in
Visibility 1.9 miles
Clouds
Dew Point 52 °F
Humidity 22%
Rainfall 0.00 in
Snow Depth Not available.
7:14 AM 6:26 PM
Waning Crescent, 19% visible
METAR VABB 230930Z 25008KT 3000 FU NSC 36/11 Q1013 NOSIG
Pressure 29.92 in
Visibility 1.9 miles
Clouds
Dew Point 52 °F
Humidity 22%
Rainfall 0.00 in
Snow Depth Not available.
7:14 AM 6:26 PM
Waning Crescent, 19% visible
METAR VABB 230930Z 25008KT 3000 FU NSC 36/11 Q1013 NOSIG

Get Your Daily Forecast Email!

Thanks for signing up!

Be on the lookout for a verification email in your inbox.

You'll start receiving the daily forecast at 8 AM.

×

10-Day Weather Forecast

No radar image for this location.
×

Almanac

Astronomy

Jan. 23, 2017 Rise Set
Actual Time
Civil Twilight
Nautical Twilight
Astronomical Twilight
Moon
Length of Visible Light
Length of Day
Tomorrow will be .
, % of the Moon is Illuminated

Today's Extremes

Country Highs Country Lows

Community

WunderPhotos

Upload Photos

1,962,540 photos uploaded!

WunderBlog® & News

Nearby

Air Quality

  Air Quality AQ Index Pollutant
Not available.

Snow Depth

Station Depth Elevation

Earthquake Activity

City Distance Mag. Time & Date
Minimum magnitude displayed is 2.5.

Coastal Water Temperatures

Place Temperature

Stations

Nearby Weather Stations

Station Location Temp. Windchill Dew Point Humidity Wind Precip. Elev Updated Type